Location: L�Ave Maria
(50.7161°N, 1.5911°E)
Time: 22:09:46
(UTC+00:00)

Gbstr 26 Del rocket - Pass Details

Date: 10 July 2020
Orbit: 493 x 1264 km, 51.8° (Epoch: 14 August)

Event Time Altitude Azimuth Distance (km) Brightness Sun altitude
Rises 22:17:44 0° 222° (SW) 2,572 6.0 -13.8°
Reaches altitude 10° 22:19:59 10° 213° (SSW) 1,681 5.0 -14.0°
Maximum altitude 22:23:23 34° 147° (SSE) 840 3.2 -14.2°
Drops below altitude 10° 22:26:58 10° 81° (E) 1,780 5.3 -14.4°
Sets 22:29:25 0° 72° (ENE) 2,750 6.4 -14.6°
